Flag for Albania Weather past 2 weeks in Tirana, Albania

Now
68 °F

Partly sunny.


Feels Like: 68 °F
Forecast: 47 / 56 °F
Wind: 3 mph from North

Location: Tirana Airport

Current Time: Mar 4, 2015 at 2:09:28 PM

Latest Report: Mar 4, 2015 at 1:20 PM


Visibility: N/A

Pressure: 30.15 "Hg

Humidity: 28%

Dew point: 34 °F

Location of TiranaLocation

Historic Weather in Tirana — Graph

°F

Tirana temperature yesterday

Maximum temperature yesterday: 64 °F (at 11:50 AM)
Minimum temperature yesterday: 43 °F (at 11:50 PM)
Average temperature yesterday: 56 °F

Past Weeks' High & Low Weather Summary

 TemperatureHumidityPressure
High66 °F (Mar 4, 11:50 AM)94% (Feb 23, 7:50 AM)30.48 "Hg (Feb 23, 7:50 AM)
Low25 °F (Feb 18, 6:50 AM)10% (Feb 19, 11:20 AM)29.53 "Hg (Feb 25, 3:20 AM)
Average50 °F68%29.99 "Hg
* Reported Feb 17 12:20 PM — Mar 4 12:50 PM, Tirana, Weather by CustomWeather, © 2015

Note: Actual official high and low records may vary slightly from our data, if they occured in-between our weather recording intervals... More about our weather records

Advertising

Tirana weather history for previous 24 hours

 ConditionsComfort  
Time TempWeatherWind HumidityBarometerVisibility
12:50 PM
Wed, Mar 4
66 °FScattered clouds.2 mph28%30.18 "HgN/A
12:20 PM66 °FPassing clouds.No wind24%30.18 "HgN/A
11:50 AM66 °FScattered clouds.2 mph32%30.21 "HgN/A
11:20 AM63 °FPassing clouds.3 mph37%30.21 "HgN/A
10:50 AM61 °FPassing clouds.3 mph42%30.24 "HgN/A
10:20 AM59 °FSunny.No wind45%30.24 "Hg10 mi
9:50 AM59 °FSunny.No wind51%30.24 "Hg10 mi
9:20 AM57 °FSunny.No wind55%30.27 "Hg10 mi
8:50 AM52 °FSunny.1 mph67%30.27 "Hg10 mi
8:20 AM50 °FSunny.No wind71%30.27 "Hg10 mi
7:50 AM46 °FSunny.3 mph82%30.27 "Hg10 mi
7:20 AM43 °FSunny.2 mph87%30.24 "Hg10 mi
6:50 AM37 °FSunny.2 mph93%30.24 "Hg10 mi
6:20 AM37 °FPassing clouds.2 mph93%30.24 "HgN/A
5:50 AM39 °FClear.5 mph93%30.24 "Hg10 mi
5:20 AM39 °FClear.3 mph93%30.24 "Hg10 mi
4:50 AM39 °FClear.3 mph93%30.24 "Hg10 mi
4:20 AM37 °FClear.5 mph93%30.24 "Hg10 mi
3:50 AM39 °FClear.5 mph93%30.24 "Hg10 mi
3:20 AM41 °FClear.3 mph87%30.24 "Hg10 mi
2:50 AM39 °FClear.2 mph93%30.24 "Hg10 mi
2:20 AM39 °FClear.5 mph87%30.24 "Hg10 mi
1:50 AM41 °FClear.No wind93%30.24 "Hg10 mi
1:20 AM41 °FClear.No wind93%30.24 "Hg10 mi
12:50 AM43 °FClear.2 mph87%30.24 "Hg10 mi
12:20 AM43 °FClear.2 mph93%30.24 "Hg10 mi
11:50 PM
Tue, Mar 3
43 °FClear.5 mph87%30.24 "Hg10 mi
11:20 PM45 °FClear.2 mph87%30.24 "Hg10 mi
10:50 PM46 °FClear.2 mph87%30.24 "Hg10 mi
10:20 PM48 °FClear.2 mph82%30.24 "Hg10 mi
9:50 PM46 °FClear.2 mph82%30.24 "Hg10 mi
9:20 PM46 °FClear.6 mph76%30.21 "Hg10 mi
8:50 PM48 °FClear.6 mph76%30.21 "Hg10 mi
8:20 PM48 °FClear.No wind76%30.21 "Hg10 mi
7:50 PM48 °FClear.3 mph76%30.18 "Hg10 mi
7:20 PM50 °FClear.5 mph67%30.18 "Hg10 mi
6:50 PM52 °FClear.3 mph67%30.18 "Hg10 mi
6:20 PM54 °FPassing clouds.5 mph58%30.15 "HgN/A
5:50 PM57 °FClear.7 mph51%30.15 "Hg10 mi
5:20 PM59 °FSunny.9 mph42%30.12 "Hg10 mi
4:50 PM61 °FSunny.10 mph39%30.12 "Hg10 mi
4:20 PM63 °FSunny.10 mph39%30.12 "Hg10 mi
3:50 PM64 °FSunny.12 mph37%30.09 "Hg10 mi
3:20 PM64 °FPassing clouds.13 mph40%30.09 "HgN/A
2:50 PM64 °FPassing clouds.13 mph40%30.09 "HgN/A
2:20 PM64 °FPassing clouds.14 mph46%30.09 "HgN/A
Weather by CustomWeather, © 2015

See weather overviewHow to use our weather pages